SILO ALERT LOG


Silo ID Alert Type Alert Message Silo Type Points Depth (mm) Strength Temperature (°C) Humidity (%) Height (mm) Volume (㎥) Weight (t) Flag Time
DJSSD01 Humidity 습도센서 측정값이 80% 초과 797 2568 4707 5.3 83.5 5511 767.044 484.925 0 2024-01-09 10:39:33.000
DJSAD07 Humidity 습도센서 측정값이 80% 초과 397 2793 2588 3.2 86.6 4786 681.099 430.591 0 2024-01-09 10:39:32.000
DJDJD04 Humidity 습도센서 측정값이 80% 초과 280 4197 4385 4.5 81 3482 421.974 266.772 11 2024-01-09 10:39:32.000
DJSAD12 Humidity 습도센서 측정값이 80% 초과 0 7700 0 2.6 86.7 -120 -17.075 0 31 2024-01-09 10:39:32.000
DJSSD05 Temperature 온도센서 측정값이 0도 미만 833 2552 5025 -45.4 43.8 5527 769.282 486.34 0 2024-01-09 10:39:32.000
DJSAD08 Humidity 습도센서 측정값이 80% 초과 596 2540 4900 7 85.1 5039 717.018 453.299 12 2024-01-09 10:39:32.000
DJSAD11 Humidity 습도센서 측정값이 80% 초과 288 1504 13116 1.3 80.6 6075 864.456 546.509 11 2024-01-09 10:39:31.000
DJHNR11 Temperature 온도센서 측정값이 0도 미만 호퍼 120 2148 2599 -1.2 75.7 8231 123.595 78.137 11 2024-01-09 10:39:31.000
DJSSD09 Temperature 온도센서 측정값이 0도 미만 109 3003 2998 -45.4 0 4676 650.935 411.521 11 2024-01-09 10:39:31.000
DJSAD16 Humidity 습도센서 측정값이 80% 초과 86 6375 3371 4 80.4 1204 119.9 75.801 11 2024-01-09 10:39:30.000
DJSAD18 Humidity 습도센서 측정값이 80% 초과 115 1425 5807 4.3 80.8 6154 612.852 387.445 11 2024-01-09 10:39:29.000
DJSAD17 Humidity 습도센서 측정값이 80% 초과 431 3119 4743 3.6 80.7 4460 444.18 280.811 0 2024-01-09 10:39:29.000
DJSSD12 Temperature 온도센서 상태 이상 호퍼 0 11350 0 -999 -999 -120 0 0 31 2024-01-09 10:39:25.000
DJHNR03 Temperature 온도센서 상태 이상 호퍼 0 15500 0 -999 -999 -119 0 0 31 2024-01-09 10:39:24.000
DJHNR12 Humidity 습도센서 측정값이 80% 초과 호퍼 0 10500 0 1.2 80.7 -120 0 0 31 2024-01-09 10:39:23.000
DJSAD03 Humidity 습도센서 측정값이 80% 초과 449 1661 6186 2.1 84.5 7118 294.693 186.305 0 2024-01-09 09:39:40.000
DJSAD01 Humidity 습도센서 측정값이 80% 초과 454 1528 7306 0.9 86.2 7251 300.199 189.786 0 2024-01-09 09:39:40.000
DJSAD02 Humidity 습도센서 측정값이 80% 초과 384 1133 4275 1.7 86.2 7646 316.536 200.114 11 2024-01-09 09:39:38.000
DJSAD12 Humidity 습도센서 측정값이 80% 초과 0 7700 0 2.5 86.7 -120 -17.075 0 31 2024-01-09 09:39:33.000
DJSSD01 Humidity 습도센서 측정값이 80% 초과 805 2554 4698 5.2 83.5 5525 769.041 486.188 0 2024-01-09 09:39:33.000

[첫 페이지] [10046] [10047] [10048] [10049] 10050 [10051] [10052] [10053] [10054] [마지막 페이지]